Theta_e
339 321 320 320 319 319 320 320 320 320 320 320 320 322 323 325 327 329 329 329 329 330 329 329 328 328 327 327 328 328 328 328 328 329 327 326 324 323 323 324 325 327 332 335 333 329 322 314 311 311 309 309 308 311 321 329 327 319 315 314 313 312 312 312 312 312 312 312 311 311 311 311 312 312 312 313 313 313 313 313 312 312 312 312 312
338 324 319 320 320 320 320 320 321 321 320 321 320 321 323 325 327 328 329 329 330 330 329 329 328 328 328 328 329 329 328 328 328 328 327 326 322 318 317 318 319 323 328 330 328 323 316 314 313 310 309 309 314 322 329 325 318 314 314 313 313 314 316 317 317 319 320 316 313 313 313 312 311 312 312 312 312 312 312 312 312 312 312 312 312
337 327 319 320 320 320 320 320 321 320 321 321 321 322 323 325 327 328 328 329 329 330 329 329 328 328 328 329 328 328 329 328 327 326 326 325 321 316 314 315 316 319 322 322 321 317 316 318 314 309 311 316 324 328 324 316 313 313 313 314 315 318 321 323 323 325 326 323 321 319 318 317 312 311 312 311 312 312 312 312 311 312 312 312 312
335 327 319 321 320 320 320 320 321 320 321 320 321 322 323 325 326 327 328 329 329 329 329 329 328 328 328 328 327 326 326 324 322 321 320 320 318 314 313 314 313 313 315 316 317 315 318 320 315 314 319 324 327 323 316 313 312 313 313 315 318 321 325 327 327 328 329 328 327 325 324 325 319 311 311 312 312 312 312 312 312 312 312 313 313
330 325 319 321 320 320 320 320 321 320 321 320 321 321 323 324 325 326 327 328 329 329 329 328 328 327 326 325 324 323 321 319 317 315 314 314 313 312 311 311 310 311 314 315 315 316 318 318 318 320 324 324 321 315 313 312 312 313 313 315 319 324 328 329 329 329 331 331 330 329 328 330 326 315 313 314 313 314 314 314 314 314 314 315 315
326 322 320 321 320 320 320 320 321 320 320 320 320 321 322 324 325 326 327 328 328 329 328 328 328 327 323 320 320 319 317 314 313 311 310 310 309 309 309 310 311 313 314 314 314 316 317 315 318 320 320 318 314 313 313 313 312 312 312 314 319 324 328 329 329 329 330 332 332 331 329 331 327 317 315 316 315 316 316 316 316 316 316 316 317
326 321 321 320 321 321 320 320 320 320 320 320 320 320 322 323 325 325 327 328 328 328 327 327 328 327 323 318 316 316 314 311 310 309 309 309 308 308 309 311 312 313 313 313 315 316 314 313 315 315 314 313 312 313 313 312 312 312 312 313 318 322 327 328 328 329 330 331 332 331 330 330 323 316 316 316 316 317 316 317 316 317 317 318 318
330 322 320 321 320 320 320 320 320 320 320 320 320 320 322 323 324 325 327 327 327 327 326 326 327 326 322 316 313 312 311 311 310 309 309 309 308 309 310 312 312 312 313 314 315 314 314 313 313 313 313 313 313 313 312 313 312 312 312 314 319 324 327 327 326 327 328 329 331 330 330 328 321 317 318 317 317 316 317 317 316 317 317 318 318
336 324 319 321 320 320 320 319 320 319 319 319 319 320 322 323 324 326 327 327 327 327 326 325 325 323 319 314 311 311 311 311 310 309 309 309 309 309 310 312 312 312 313 314 314 313 313 313 313 313 313 313 313 312 313 312 312 313 313 316 322 326 328 328 328 327 328 328 329 329 330 329 324 321 321 321 321 320 319 318 318 318 318 319 318
341 330 320 320 320 320 320 319 319 319 319 319 320 320 321 323 324 326 326 326 326 326 326 325 324 321 315 312 310 310 311 310 309 310 310 310 310 310 311 312 312 313 314 314 313 313 313 312 313 312 312 312 312 313 313 312 313 313 313 318 324 328 329 329 330 330 330 330 329 330 331 330 326 323 323 324 325 324 324 323 322 321 321 321 321
344 335 321 319 320 319 320 319 319 318 319 319 319 320 321 323 324 325 326 326 326 326 325 325 323 319 314 311 310 310 311 310 309 310 311 312 311 311 311 312 312 313 313 313 313 313 312 312 312 312 312 312 313 313 313 313 314 314 316 321 327 329 331 331 331 331 330 330 331 332 331 329 326 323 324 325 326 326 326 326 325 325 324 324 324
345 336 321 318 319 318 320 319 319 318 318 319 319 319 321 322 324 325 325 325 326 326 325 324 323 318 313 310 310 311 310 310 310 312 313 313 312 312 312 312 312 312 313 312 312 312 312 312 313 312 312 312 313 313 314 315 316 317 319 323 326 329 330 330 331 330 330 331 331 331 331 330 328 325 324 324 325 326 326 326 326 326 326 326 326
343 337 322 318 319 318 319 319 319 318 318 319 319 320 320 322 323 324 325 325 325 325 325 324 322 318 313 310 310 310 310 310 311 312 314 314 313 313 312 312 312 312 312 312 312 312 313 313 313 313 314 315 316 317 318 318 319 320 321 322 324 325 328 330 330 330 330 331 331 330 331 331 330 328 325 323 325 326 325 325 326 327 328 328 329
340 338 324 317 319 319 319 319 319 318 318 319 319 319 320 321 322 324 324 325 325 325 325 325 323 318 313 311 310 310 310 310 311 313 315 315 314 313 313 312 312 312 312 313 313 313 313 314 314 316 318 319 320 320 320 320 320 320 320 320 319 319 325 330 331 331 331 331 331 331 331 331 332 331 327 324 325 326 325 326 327 329 330 330 330
340 338 328 320 319 320 320 320 319 319 318 318 319 319 320 320 321 323 324 324 325 325 325 325 323 318 313 311 310 310 310 310 311 313 315 316 315 314 314 314 313 314 314 314 315 315 315 315 317 319 319 320 320 320 319 319 318 318 318 317 316 316 319 328 331 331 331 331 331 331 332 332 332 332 328 326 326 326 327 327 329 330 330 331 330
344 340 334 325 321 321 322 321 320 320 318 318 319 319 319 320 321 323 323 324 325 326 325 325 323 318 313 310 310 310 310 310 310 313 315 316 315 316 316 316 316 316 316 316 317 317 317 318 318 318 318 318 318 318 318 317 316 316 315 314 315 314 315 325 331 331 332 333 332 331 332 332 332 331 330 328 327 327 328 330 330 331 331 331 331
347 344 340 332 324 322 323 322 322 320 319 318 318 319 319 319 321 323 323 324 326 326 326 325 322 318 314 311 310 310 310 310 310 312 314 316 316 316 317 317 318 318 318 317 317 317 317 318 318 318 318 317 316 316 315 314 314 315 315 316 315 314 319 328 332 331 332 333 332 333 332 332 332 332 331 329 328 328 329 330 331 331 331 331 331
348 346 344 339 329 323 323 323 323 321 320 318 317 318 318 319 321 323 323 325 326 326 325 325 323 320 316 312 310 310 310 310 310 310 312 314 315 315 316 316 317 317 317 317 317 317 316 317 317 317 316 315 315 313 315 318 321 322 323 322 317 315 323 331 333 332 332 332 333 333 332 333 332 332 331 330 329 329 330 331 332 332 332 332 331
348 347 344 342 335 325 323 324 323 322 321 319 317 317 318 319 322 324 325 326 327 327 325 325 324 322 319 314 311 310 310 310 310 310 311 312 313 313 314 314 315 315 315 315 315 315 315 315 315 315 314 313 312 313 321 328 329 330 330 329 324 322 327 332 333 333 333 333 333 333 333 333 332 332 331 330 330 330 331 331 332 332 332 332 332
347 345 342 340 337 329 323 323 323 322 322 320 318 317 318 321 324 326 326 327 328 328 326 326 325 324 321 316 312 310 310 310 310 310 311 311 312 312 312 313 313 313 313 313 313 313 313 314 313 313 312 314 316 320 328 332 332 333 333 332 331 331 331 333 334 333 334 334 333 333 333 333 333 332 331 330 330 330 330 331 331 332 331 331 331
345 344 341 336 333 329 325 323 323 322 322 320 318 317 319 323 326 327 327 327 329 329 327 327 326 325 323 318 313 311 310 310 310 310 311 311 311 312 312 312 313 312 313 312 312 312 312 312 312 313 317 324 327 329 331 332 332 334 335 334 334 334 333 334 335 334 334 334 334 334 334 334 333 332 331 329 329 328 329 329 330 331 331 331 331
344 344 343 338 330 327 326 324 324 322 321 321 319 318 320 324 326 327 328 328 330 330 328 327 326 325 324 320 315 311 310 310 310 310 310 310 311 311 312 312 312 312 312 312 312 312 313 316 317 320 327 331 332 332 332 332 333 335 336 335 334 334 334 335 335 334 334 334 334 334 333 333 332 331 329 327 327 327 327 328 329 330 330 330 330
345 344 343 341 332 326 326 324 324 323 322 321 319 319 321 325 327 327 329 330 331 330 329 328 327 326 324 322 317 311 310 310 310 310 310 310 310 311 311 312 312 311 312 312 312 313 318 327 329 330 333 333 333 333 332 334 334 335 335 334 333 333 334 335 334 334 334 334 334 333 332 333 332 330 328 327 327 327 328 329 330 330 330 329 330
345 344 342 341 337 331 328 325 325 324 323 322 321 321 323 326 327 328 330 330 331 331 330 329 328 327 325 322 317 311 310 310 310 310 310 310 310 311 311 311 311 311 312 312 316 323 328 333 335 334 335 335 335 335 334 335 334 333 334 332 332 332 334 334 334 333 333 333 332 332 332 332 331 330 328 329 328 329 331 331 331 331 331 330 330
345 344 343 342 340 335 331 329 329 327 324 324 324 325 326 326 328 330 332 332 332 332 331 330 329 327 324 320 315 311 311 310 311 310 310 310 310 310 310 311 311 311 313 315 322 331 334 334 335 335 336 336 336 335 335 334 333 333 333 332 332 332 333 334 333 333 332 332 332 332 333 332 331 330 330 330 330 331 332 331 331 331 331 330 331
344 344 343 342 340 338 335 332 333 330 327 327 325 327 329 328 330 333 334 334 334 334 333 332 329 326 322 317 313 312 312 311 311 311 311 311 311 311 311 311 311 314 319 324 328 332 334 335 335 335 336 336 335 335 334 333 332 332 332 332 333 333 333 333 333 333 333 333 333 334 333 332 331 330 330 331 331 331 331 331 331 330 330 331 331
344 344 343 342 340 339 338 335 334 332 330 330 329 331 333 331 333 335 335 335 335 335 335 332 330 329 326 318 312 313 312 310 311 312 312 311 311 311 312 314 315 322 330 333 335 334 333 334 335 335 335 334 334 334 333 333 332 331 332 332 333 332 332 332 334 334 334 334 334 334 332 331 330 329 330 330 330 330 329 329 329 329 329 329 330
344 344 342 342 340 340 340 336 335 335 333 333 334 335 336 334 335 337 337 337 336 337 335 333 333 333 331 321 312 316 316 316 316 314 313 313 317 319 322 324 324 329 333 334 336 336 335 335 335 335 334 333 334 333 331 332 332 331 332 331 331 331 332 333 334 335 335 334 334 333 332 330 330 329 330 329 329 328 327 326 326 326 326 326 327
344 343 342 342 341 340 340 337 336 336 335 336 337 337 337 336 338 339 338 339 338 338 336 335 335 334 332 319 313 320 324 326 324 319 319 324 329 330 330 331 331 332 333 334 337 337 337 336 335 334 334 334 335 332 330 331 331 330 331 331 331 331 333 333 334 335 334 333 332 332 331 329 328 328 327 327 327 326 325 324 323 323 323 322 322
344 343 342 341 341 340 339 339 337 337 338 338 338 339 338 338 340 339 340 341 339 338 337 336 336 334 329 317 317 328 333 334 330 326 329 333 335 333 332 331 332 334 333 335 338 338 338 336 334 335 334 335 334 331 330 330 329 330 331 331 332 332 332 332 333 334 333 332 331 330 329 327 326 325 325 325 324 322 320 318 317 316 315 314 315
343 342 342 341 341 340 340 340 338 339 340 340 340 341 340 340 341 340 340 341 339 338 338 337 335 332 326 316 319 332 336 337 335 333 336 336 336 335 334 333 332 334 334 336 338 338 337 336 334 335 335 334 332 330 329 329 328 330 331 331 331 331 330 331 332 332 331 330 328 327 326 326 324 323 324 323 320 316 312 310 308 307 306 305 306
343 342 341 341 341 340 340 341 340 340 341 341 341 341 341 342 342 341 341 340 339 339 338 337 333 328 321 312 317 329 334 336 336 337 337 336 336 336 336 336 336 336 336 337 337 336 336 336 333 333 332 331 330 330 329 328 328 329 330 331 330 330 330 330 330 329 328 327 326 326 326 325 323 322 320 316 312 307 305 303 303 302 302 302 302
342 342 341 340 340 340 340 341 340 340 341 341 340 339 340 342 342 342 341 340 339 339 338 336 331 325 317 311 319 329 332 335 336 337 337 334 334 334 332 333 334 335 337 337 336 335 336 336 333 332 332 331 329 329 329 328 329 329 330 331 331 331 331 329 328 327 326 325 325 326 326 325 322 318 312 307 304 303 302 302 302 302 302 302 302
342 342 341 340 339 338 340 341 339 339 341 341 340 339 339 342 342 342 341 340 339 338 338 335 331 326 318 314 323 330 333 336 337 337 336 334 333 330 329 330 331 331 334 336 335 335 336 335 334 332 332 332 330 329 329 329 329 329 329 331 330 330 330 329 328 327 326 324 324 325 323 321 315 309 305 303 302 302 302 302 302 302 302 302 301
342 342 341 341 340 339 340 342 340 339 341 341 340 339 339 342 342 341 341 340 339 338 336 334 331 329 324 321 326 331 335 337 335 335 335 335 333 329 331 331 331 329 330 333 336 336 336 335 334 333 331 331 330 328 329 328 329 330 329 330 329 329 329 328 327 327 326 324 322 318 314 310 305 303 302 302 302 302 302 302 302 302 302 301 301
342 342 342 341 341 341 341 342 340 340 342 341 340 339 338 341 342 341 341 340 339 336 335 333 331 331 328 326 328 332 335 335 333 333 335 335 331 329 331 329 329 330 329 333 337 337 335 334 333 332 331 330 329 329 329 328 329 330 329 329 329 329 329 327 326 325 323 320 314 307 304 303 302 302 302 302 302 302 302 302 302 301 301 301 301
343 342 343 343 342 342 341 341 341 341 341 341 340 339 339 341 341 340 340 340 338 336 335 334 331 333 332 330 330 331 332 333 332 332 333 331 329 329 329 328 328 329 329 331 335 336 335 333 330 331 332 330 328 328 328 330 331 330 330 330 329 329 328 324 321 317 313 309 305 302 302 302 302 302 301 301 301 301 301 301 301 301 301 301 301
344 343 343 343 343 342 342 341 340 341 341 340 340 339 340 341 341 341 340 339 337 336 336 334 333 335 335 333 331 329 330 331 331 332 332 328 327 330 329 328 328 328 329 330 332 336 335 333 327 326 330 330 326 326 328 332 332 332 331 330 329 329 325 317 312 308 304 302 302 302 302 302 302 302 301 301 301 301 301 300 300 300 301 301 300
344 344 344 343 343 342 342 340 339 341 340 340 339 339 340 341 340 340 339 338 337 337 337 335 336 336 335 333 331 330 329 329 331 332 331 328 328 330 330 329 328 329 330 330 331 334 335 333 327 322 324 328 326 324 329 332 333 332 330 330 329 327 319 308 304 303 302 302 302 302 302 302 302 301 301 301 301 301 301 300 300 300 301 300 300
345 344 344 343 343 343 342 340 339 341 340 340 339 338 340 341 340 339 338 338 337 337 338 336 337 337 335 334 333 332 329 328 330 330 328 328 328 329 331 330 329 330 331 330 331 333 334 332 327 319 317 322 322 322 328 331 332 331 330 330 325 322 316 303 302 303 302 302 302 302 302 301 302 301 301 301 301 301 301 301 300 300 300 299 300
344 344 344 344 344 343 342 340 339 340 340 340 338 337 340 340 339 339 337 337 337 337 337 336 336 335 335 335 334 333 330 330 330 329 328 328 328 330 331 329 330 332 332 331 331 332 333 328 322 316 314 318 318 322 328 329 331 331 329 328 322 322 318 304 302 304 301 302 301 301 302 301 301 301 301 301 300 301 300 300 300 299 299 299 299
344 344 343 343 343 342 341 340 339 338 339 338 337 336 339 339 338 337 337 337 337 337 337 335 334 334 335 335 335 334 332 331 331 330 329 328 329 331 331 329 330 333 334 333 332 332 332 326 318 314 316 319 316 320 328 329 330 330 329 328 324 326 321 306 305 306 301 302 301 301 301 301 301 300 300 301 300 300 300 300 299 299 299 299 299
344 344 344 343 342 341 341 339 338 338 338 337 336 337 339 339 337 336 336 336 336 335 335 335 333 334 336 335 334 334 332 331 331 331 329 328 329 330 330 329 329 332 334 334 333 332 331 324 316 314 314 317 314 314 325 329 329 329 329 330 328 328 323 313 310 306 301 301 301 301 301 300 301 300 300 300 300 300 299 299 299 299 299 299 299
344 344 344 343 342 341 340 339 338 337 336 336 336 337 338 338 337 335 334 334 333 333 334 334 334 335 336 335 334 333 331 330 330 330 329 327 327 328 329 330 330 332 333 333 332 331 326 319 316 316 314 316 313 309 319 329 331 329 328 329 328 328 326 321 315 307 301 300 301 301 301 301 301 301 301 300 300 300 299 299 299 299 299 299 299
344 345 344 343 342 341 340 339 337 336 335 336 337 338 337 337 336 334 333 333 333 334 335 334 335 335 335 335 333 332 331 330 330 330 329 327 326 328 330 331 332 332 332 331 330 327 321 317 317 317 315 317 315 306 313 328 332 330 329 329 328 328 329 325 319 309 301 300 301 301 303 305 303 302 302 301 301 300 300 299 299 299 299 299 299
345 345 343 343 342 340 340 339 336 334 335 337 338 337 335 334 333 332 331 333 334 334 334 334 334 334 334 333 332 331 331 330 330 330 329 328 327 329 331 331 331 332 332 330 328 323 317 315 318 317 315 318 317 307 308 324 331 330 330 331 329 328 328 325 320 314 306 302 303 304 308 310 307 303 302 302 302 302 301 299 300 300 299 299 299
345 344 343 343 342 339 340 340 335 334 335 337 338 337 333 331 331 330 330 332 334 335 335 334 334 334 333 332 332 331 331 330 330 329 329 329 329 330 330 329 331 331 331 330 326 320 315 314 316 317 316 318 317 307 304 315 324 326 328 330 328 326 324 321 319 319 314 310 308 308 311 311 307 304 303 303 303 303 302 300 301 301 299 299 299
344 344 343 343 341 340 340 340 335 333 334 336 338 335 330 329 330 331 332 334 335 335 335 335 334 334 333 332 332 331 331 330 329 329 329 330 330 330 329 330 331 330 330 329 323 317 315 314 314 316 317 317 314 307 304 307 313 318 323 325 324 323 321 319 318 318 317 314 311 310 312 311 306 304 303 303 303 303 302 300 301 301 299 299 299
343 343 343 342 342 341 341 339 335 332 333 335 336 333 330 329 331 333 334 335 336 335 335 334 334 333 333 332 332 331 331 330 330 330 331 331 331 331 331 331 331 330 329 325 319 315 315 314 313 314 315 314 311 307 305 305 308 313 318 318 319 320 319 318 317 317 316 313 311 311 313 311 307 304 304 304 303 303 302 301 300 300 299 299 300
342 343 342 341 342 342 341 340 335 333 334 334 334 334 332 331 331 332 333 335 336 335 334 334 333 333 333 333 332 331 331 331 331 332 332 332 332 331 332 332 331 330 326 320 316 315 314 314 312 310 309 308 308 307 305 304 305 308 311 311 313 314 315 316 317 316 314 311 310 311 312 311 306 304 304 304 304 303 303 302 299 299 299 299 300
342 342 341 342 342 341 341 340 336 334 334 334 334 335 334 331 329 330 332 333 334 334 334 334 333 333 333 333 332 331 331 332 332 333 333 333 332 332 332 331 330 328 322 316 315 314 314 313 310 306 305 304 306 307 304 304 304 305 305 305 305 306 307 311 315 315 312 309 309 310 311 309 306 304 304 303 303 303 303 301 299 299 299 299 299
Wind_Speed
17 16 16 17 17 17 17 16 16 16 16 16 16 16 15 14 13 12 11 11 10 10 10 11 10 10 10 10 10 10 10 10 10 10 9 9 8 8 9 9 9 10 11 11 10 10 11 12 12 13 14 15 17 20 21 21 20 20 22 22 22 21 21 20 20 20 19 19 19 18 17 15 14 14 13 13 13 13 13 13 13 12 11 12 12
21 18 16 17 17 17 17 16 16 15 16 15 16 16 15 14 13 12 11 11 10 10 10 10 10 10 10 10 10 10 10 9 9 8 8 7 8 8 8 8 9 10 10 10 10 11 12 13 14 15 17 19 21 22 22 21 21 22 22 22 21 21 20 20 19 18 18 18 18 18 18 16 14 13 12 12 12 12 12 11 11 10 10 11 11
22 19 17 18 17 18 17 16 16 15 15 15 15 16 15 15 13 12 11 11 10 10 10 10 9 9 10 10 9 9 9 8 8 7 7 6 7 8 9 9 10 10 10 9 10 11 13 15 16 18 20 22 22 21 21 21 22 22 22 21 21 21 20 20 19 17 16 16 16 17 19 18 15 13 12 11 11 11 10 10 10 10 10 10 10
21 19 19 18 18 18 17 17 16 15 15 15 15 15 15 14 14 13 11 11 10 10 9 9 8 8 9 9 9 9 8 7 7 7 7 7 7 9 10 10 11 11 11 11 12 13 15 16 18 20 21 22 21 21 22 22 22 21 21 20 20 21 21 21 19 17 15 14 14 15 17 17 16 13 11 11 10 10 9 9 9 9 9 9 9
21 21 20 19 19 19 18 17 16 16 15 15 15 15 15 14 13 12 12 11 10 10 9 8 8 8 8 8 8 9 8 7 8 8 9 9 9 10 11 11 12 14 14 14 14 15 16 17 19 20 20 20 21 21 22 21 21 20 20 20 21 21 21 20 18 17 15 12 11 13 14 15 15 12 10 10 9 9 9 9 9 9 8 8 9
20 21 21 20 20 19 18 18 17 16 16 16 15 15 15 14 13 12 12 11 10 10 8 7 8 8 8 8 8 9 8 8 9 10 10 11 12 12 12 13 15 16 16 16 17 18 18 19 20 20 20 21 21 21 21 20 19 19 19 19 20 19 19 19 18 17 15 11 7 10 13 14 14 12 10 10 10 10 10 10 10 9 9 9 9
19 21 21 21 20 19 19 18 17 17 16 16 15 15 15 14 13 12 12 11 11 10 8 8 8 8 8 8 8 8 8 9 10 11 12 13 13 13 14 15 16 17 17 18 19 19 19 19 20 21 21 21 20 20 19 18 18 18 17 18 17 17 17 17 16 15 13 10 7 10 13 13 13 11 12 12 11 11 11 11 10 11 10 10 10
19 21 21 21 20 19 19 18 18 17 16 16 15 15 15 14 12 12 12 11 11 9 8 8 8 7 7 8 8 8 9 10 10 11 13 13 13 14 15 16 17 18 18 19 20 19 19 19 19 20 20 19 19 18 18 17 17 16 16 16 16 15 15 14 14 13 11 9 9 10 11 12 12 11 12 12 12 12 11 11 11 11 12 12 11
19 21 21 21 21 19 19 19 18 17 17 16 15 15 15 14 13 12 12 11 11 9 8 8 7 7 7 8 8 8 9 10 11 11 13 14 14 15 16 17 17 18 19 20 20 19 19 18 18 18 18 18 17 17 16 15 15 15 15 15 14 14 14 13 12 13 11 9 8 8 9 10 11 12 12 12 12 12 12 12 11 11 11 11 11
19 21 22 21 20 20 19 19 18 18 17 16 15 15 15 14 13 12 11 11 10 9 8 8 7 7 7 7 8 9 9 10 12 12 13 14 14 16 17 17 17 18 19 19 19 18 18 18 17 17 16 16 16 15 14 14 14 13 13 13 13 13 13 13 11 12 11 7 4 6 9 10 11 12 13 13 13 13 12 12 11 11 10 10 11
19 22 22 22 20 20 19 19 18 18 17 16 16 15 14 13 13 12 11 10 10 9 8 8 7 6 7 7 8 9 10 11 12 13 13 14 15 16 17 17 18 18 18 18 18 17 17 17 16 16 15 14 14 13 13 12 12 12 12 11 12 13 14 13 10 10 8 5 2 6 8 9 10 12 13 13 13 13 12 12 11 11 11 11 11
19 22 23 22 21 20 19 19 18 18 17 17 16 16 14 13 13 12 11 10 10 9 8 8 7 7 6 7 8 9 11 12 12 13 13 14 15 16 17 18 18 17 17 17 17 16 15 15 15 14 13 13 12 12 11 11 11 10 10 11 11 12 12 11 10 10 8 4 3 7 7 9 9 11 13 12 12 12 12 12 12 12 12 12 12
18 21 23 23 22 20 20 19 19 18 17 17 16 16 15 14 13 12 11 11 10 9 9 8 7 7 6 7 8 10 11 12 12 13 13 14 15 15 17 18 17 17 16 16 15 14 14 13 13 12 11 11 10 10 9 9 9 9 9 10 9 9 9 9 9 8 8 3 4 8 8 9 9 11 14 13 12 11 11 11 12 12 13 13 13
15 20 23 23 22 21 20 19 19 18 18 17 16 16 15 14 13 12 11 11 10 9 9 8 7 7 7 7 8 10 11 12 13 13 13 14 14 15 16 16 16 15 15 14 13 13 12 12 11 11 9 8 8 8 8 8 8 8 7 6 5 6 6 6 7 7 7 2 6 8 8 9 9 10 13 14 12 11 11 11 11 12 12 13 13
12 17 21 23 24 22 21 20 19 18 18 18 17 16 15 14 13 12 12 11 10 9 9 8 7 7 7 7 8 10 11 12 12 13 13 13 14 14 14 15 15 14 14 13 12 11 11 10 10 9 8 7 7 7 7 6 6 6 5 4 4 4 4 4 5 7 8 4 4 7 7 9 10 10 12 14 12 11 11 11 11 12 12 12 13
11 13 17 21 23 24 22 20 19 18 18 18 17 16 15 14 13 13 12 12 11 10 9 8 7 7 7 7 8 9 10 12 12 12 12 13 13 13 13 13 13 13 13 12 11 10 9 9 8 7 7 6 6 5 5 5 5 5 5 4 4 4 4 4 5 7 8 5 4 8 8 9 10 11 12 14 13 11 11 11 11 12 12 13 13
13 12 14 17 21 24 24 22 20 19 18 17 17 16 15 14 13 13 12 12 12 11 10 8 7 7 6 7 8 9 10 11 12 12 12 12 12 12 12 12 12 12 11 11 10 9 8 7 6 6 5 5 4 4 5 5 5 5 5 5 4 4 5 6 7 5 6 4 5 8 8 9 10 11 13 14 13 11 11 11 11 11 12 13 14
15 13 13 16 19 23 24 23 21 20 19 18 17 17 16 15 14 14 13 13 12 11 9 8 7 7 7 7 7 8 9 11 12 12 11 12 11 11 11 11 11 10 10 9 8 7 7 6 5 4 3 3 3 4 5 6 7 7 7 7 5 4 6 8 8 5 6 5 4 7 8 9 10 11 12 13 12 11 11 11 12 12 12 13 13
16 14 13 16 19 23 25 24 22 21 19 19 18 18 16 15 15 14 13 12 11 10 9 7 7 7 7 7 7 7 8 10 11 12 12 11 10 10 10 9 9 8 8 7 6 6 5 5 4 3 3 3 3 4 6 8 9 9 9 8 7 7 7 7 7 7 7 6 5 7 8 9 10 11 12 12 12 11 11 11 12 12 12 13 13
15 13 13 16 20 23 26 25 23 22 20 20 19 18 17 16 16 14 13 11 10 9 8 7 7 8 8 7 7 7 8 9 10 11 12 11 10 9 9 9 8 7 6 5 5 4 4 4 3 3 4 3 4 5 7 8 10 11 10 9 9 8 7 7 7 6 6 6 6 8 9 10 11 11 12 12 12 11 11 11 11 12 12 12 12
13 13 12 15 20 24 26 26 24 22 21 20 19 19 18 18 16 15 13 11 10 9 8 7 7 7 7 7 7 7 8 8 9 10 10 10 10 9 8 8 7 6 5 5 4 4 4 4 4 5 5 6 7 7 7 8 9 10 10 9 9 8 8 7 6 5 4 7 7 9 10 11 12 12 12 11 11 11 11 10 10 10 11 11 12
13 12 12 13 16 21 25 26 24 22 22 21 20 19 19 19 17 15 13 10 10 9 8 7 6 7 7 8 7 7 8 8 8 9 9 9 9 9 8 6 6 6 5 5 5 5 5 5 6 6 7 7 8 7 7 7 9 10 10 10 9 10 10 7 5 5 6 7 8 9 10 11 11 11 10 10 10 10 9 9 9 9 10 10 11
16 14 13 13 13 17 21 23 23 22 21 21 20 19 19 19 16 14 12 10 10 8 7 6 6 6 7 7 8 8 9 8 8 8 8 8 8 8 8 7 6 6 5 5 6 6 6 7 7 7 6 6 6 6 5 6 8 10 10 10 10 10 9 5 3 5 6 7 8 9 10 10 10 9 9 9 9 8 8 8 8 9 9 9 10
19 16 15 14 12 14 16 19 21 21 20 20 20 20 19 18 15 13 11 10 9 8 7 6 6 7 7 8 9 9 9 9 8 8 7 7 7 7 6 6 5 5 6 6 7 8 7 7 6 5 4 3 4 4 5 7 9 10 9 10 10 8 6 4 3 4 6 7 8 9 9 9 8 8 8 8 7 8 8 8 9 9 9 9 9
20 18 17 14 13 13 14 18 18 18 19 19 20 19 18 17 14 13 11 10 9 8 7 6 6 7 7 8 9 9 10 9 8 8 7 7 6 6 5 5 5 5 6 7 8 7 6 6 4 3 2 3 4 6 8 9 10 9 7 8 9 6 6 5 3 6 7 7 7 8 8 8 7 7 7 8 8 9 9 10 10 10 10 10 10
21 21 18 15 15 14 15 17 16 16 17 17 18 19 17 16 14 13 12 10 10 9 7 7 8 7 7 10 10 9 9 8 7 7 7 7 6 5 5 4 5 6 6 6 6 4 3 4 4 3 4 5 6 7 8 9 10 10 8 7 9 5 3 3 5 8 7 6 7 7 7 7 8 7 7 7 8 9 10 11 11 11 11 11 11
24 23 19 17 17 17 15 15 15 15 15 16 17 18 17 15 14 13 12 11 10 9 7 6 7 5 6 10 11 10 10 8 7 7 7 7 7 6 5 5 7 7 6 5 3 1 2 6 7 6 7 6 6 6 6 7 8 9 7 6 4 1 4 5 6 6 5 5 6 6 7 7 7 7 7 7 8 8 9 10 10 10 10 11 11
25 24 21 20 20 20 18 15 15 14 14 16 17 18 17 15 15 13 12 11 10 8 6 5 4 2 3 7 11 11 11 9 6 6 8 8 6 5 5 5 6 7 5 4 3 3 4 6 7 6 6 6 6 6 6 5 4 4 3 3 2 4 4 5 4 4 4 4 4 5 6 6 7 7 8 8 9 9 9 10 10 10 10 10 10
27 26 24 24 23 23 19 16 16 15 14 15 15 17 17 15 15 14 12 11 10 9 7 5 4 4 5 7 12 11 10 9 3 4 9 8 6 4 2 2 4 5 3 2 2 3 2 4 5 4 5 6 7 6 6 6 4 4 3 3 3 2 2 4 4 3 2 2 3 4 5 5 7 8 9 9 10 10 10 11 12 11 11 11 11
28 28 26 27 26 24 20 16 16 17 17 16 14 15 16 15 14 14 12 11 11 10 8 5 5 5 5 9 13 12 10 7 3 3 5 3 2 1 4 4 4 2 1 2 1 0 2 5 5 4 5 4 5 6 7 8 6 8 5 4 3 2 2 4 2 2 1 2 3 4 5 7 8 9 10 11 11 12 12 13 13 13 13 13 12
30 30 29 28 26 24 21 17 17 20 21 17 14 15 17 15 14 14 12 11 12 11 9 6 5 5 5 12 15 14 12 9 5 4 3 1 4 5 6 6 6 5 7 7 4 3 4 5 3 4 3 4 6 7 8 8 6 8 6 4 2 2 4 4 2 1 2 3 4 6 7 9 10 11 13 14 14 14 14 14 14 14 14 13 13
31 31 31 30 27 25 22 19 19 24 24 19 17 16 16 16 15 15 13 13 14 13 11 7 6 6 9 15 15 14 13 13 11 8 7 9 11 9 6 6 7 9 8 7 5 4 4 3 3 6 5 6 8 7 7 6 4 6 5 2 1 2 4 4 2 2 4 5 6 7 8 10 11 13 15 15 15 15 14 14 13 13 12 12 12
31 31 32 31 29 25 23 21 21 25 25 21 19 16 15 16 17 16 15 16 16 15 12 9 7 8 12 15 15 13 13 14 14 12 12 14 15 14 10 9 10 9 5 4 4 4 5 5 7 9 7 6 7 5 6 7 5 4 3 2 1 1 1 1 2 2 4 6 7 8 10 11 13 14 15 14 14 14 13 13 12 12 12 13 13
31 31 31 31 28 25 25 23 23 26 25 21 20 17 15 17 18 16 17 18 18 15 13 11 9 9 12 14 13 13 13 14 16 16 13 10 10 11 10 10 10 9 5 3 4 5 6 6 8 9 7 6 5 3 5 7 6 5 3 2 2 1 2 1 1 1 3 4 5 7 10 11 13 13 14 14 14 13 12 12 12 12 13 14 13
31 31 31 30 27 25 25 25 26 27 24 21 20 18 16 18 19 17 18 19 17 15 14 13 11 10 12 13 11 12 13 13 13 15 13 9 8 9 9 9 9 8 6 5 5 6 6 6 7 9 8 7 6 5 4 4 4 4 4 4 4 5 4 1 1 4 5 5 6 6 7 8 9 9 10 10 12 12 13 13 14 15 15 15 15
31 31 30 29 27 24 23 25 29 29 22 20 20 19 17 18 19 18 19 19 15 14 14 13 13 12 12 12 11 11 12 10 10 12 13 11 9 9 9 9 8 8 8 8 7 7 6 6 7 10 10 8 7 7 5 5 5 5 5 6 5 5 4 2 4 6 6 7 6 5 6 7 7 8 9 9 10 11 13 14 16 16 16 16 16
31 31 30 29 26 23 22 24 29 31 24 20 19 19 18 19 20 19 19 17 15 15 14 13 13 12 13 13 12 12 12 11 10 10 11 11 9 8 8 9 9 9 9 11 9 7 6 6 7 12 11 9 9 8 7 7 6 7 7 7 5 4 3 5 5 5 5 4 4 7 8 8 8 10 11 12 13 13 14 15 16 15 16 16 16
31 31 29 29 27 23 22 23 28 32 27 21 20 20 20 20 20 19 18 16 15 14 12 13 12 11 13 13 14 13 13 13 11 9 9 10 10 8 8 8 9 10 12 12 11 8 6 6 6 12 13 10 10 11 9 8 7 7 7 6 5 4 5 7 5 3 4 4 6 8 9 9 9 11 12 13 15 15 16 16 15 15 16 17 17
32 30 28 28 26 24 23 23 28 32 28 24 22 22 22 22 20 18 18 17 15 14 13 13 14 13 14 13 13 14 13 13 11 9 9 10 10 9 8 8 9 12 12 12 13 11 9 7 6 10 13 11 10 12 11 8 7 7 6 5 3 3 4 4 4 5 7 7 9 9 9 10 10 12 13 13 15 15 14 15 15 16 17 18 19
32 30 29 28 27 26 24 25 30 31 27 26 25 24 25 24 22 19 19 19 18 17 16 16 17 17 15 12 12 13 13 13 12 11 10 10 11 10 8 9 11 13 13 13 14 11 9 9 8 10 13 12 11 13 12 11 9 8 7 5 2 1 2 6 7 9 10 10 9 9 10 11 12 12 12 13 14 14 13 14 16 17 19 20 21
32 30 30 29 27 28 26 27 32 31 29 29 27 27 28 26 24 22 21 21 20 20 20 19 19 18 16 13 13 13 13 14 13 12 11 10 12 12 9 10 11 13 14 13 13 11 9 9 10 11 11 11 11 13 13 13 12 11 9 6 4 4 4 7 10 11 12 11 10 10 10 11 12 13 13 13 14 14 14 15 17 19 21 21 21
33 31 31 29 28 28 25 27 33 33 31 31 29 29 29 27 25 22 22 24 23 22 21 21 19 18 17 15 14 13 14 14 13 11 10 11 13 12 11 12 13 13 13 13 13 11 9 9 13 14 11 10 11 13 15 15 13 12 9 6 6 6 5 6 10 13 13 12 10 10 10 11 12 13 14 14 16 16 17 17 19 21 22 21 20
35 32 31 30 30 28 25 28 34 34 32 32 30 29 28 26 24 22 24 25 23 23 22 21 19 18 17 16 15 14 14 14 13 12 11 11 13 13 12 14 15 14 13 13 13 11 10 11 15 15 13 12 11 13 18 17 14 13 10 6 6 7 6 6 8 12 12 11 10 10 11 13 13 13 14 16 18 19 19 20 20 21 21 20 19
36 35 34 33 32 29 26 29 34 34 32 32 29 28 27 26 23 22 24 24 23 22 22 21 20 18 17 15 14 14 14 14 13 13 12 12 13 14 13 14 16 15 14 14 13 12 12 14 16 16 14 13 11 12 18 19 15 14 11 7 6 7 6 6 7 11 11 10 11 11 13 14 13 13 13 17 20 22 22 21 20 20 20 19 19
38 38 37 36 32 29 27 28 33 34 32 31 28 27 28 26 24 24 25 26 25 24 23 23 21 20 18 16 14 14 14 13 13 13 13 13 14 14 14 15 16 15 14 14 13 13 14 16 16 15 13 13 12 12 17 20 17 15 12 8 7 8 8 10 9 10 11 11 10 11 13 15 16 15 13 16 21 23 23 22 20 20 19 19 19
40 39 38 36 31 27 26 27 32 34 32 30 29 29 29 28 28 28 29 30 28 26 23 22 21 21 20 18 16 16 15 14 14 14 15 14 14 15 15 16 17 16 15 14 13 13 15 15 15 14 12 12 12 12 16 20 18 15 15 13 10 8 8 12 10 9 11 10 8 8 10 13 17 18 16 17 21 22 23 22 20 20 18 18 18
40 39 38 36 31 27 26 28 32 35 32 31 31 31 31 30 30 29 29 29 28 25 23 21 20 20 20 19 18 16 15 15 15 15 15 14 14 15 16 17 17 16 15 14 14 13 14 14 15 16 13 12 12 12 14 19 19 17 16 15 14 9 7 9 8 9 10 8 5 6 8 10 15 19 18 19 20 20 20 20 19 19 17 17 17
40 39 38 35 32 28 27 29 33 35 34 32 32 33 32 31 30 29 27 26 25 23 22 22 20 19 20 19 18 17 17 16 17 17 16 15 15 16 18 18 16 15 14 13 14 14 14 14 15 17 16 14 13 12 13 16 18 18 16 14 13 10 9 8 6 7 8 7 6 5 7 9 13 17 18 19 18 16 17 17 16 16 16 17 18
38 38 37 34 32 29 27 29 33 35 35 34 33 33 33 32 31 29 27 25 23 22 23 22 21 20 20 19 19 19 18 18 18 18 17 16 16 17 18 17 15 14 13 13 13 14 14 14 15 17 17 16 13 12 13 14 15 16 17 15 13 12 11 10 7 7 7 8 7 5 5 8 12 15 16 16 14 12 13 15 14 14 16 18 20
37 36 35 34 33 30 29 30 33 34 36 35 35 33 33 33 32 30 28 26 24 23 23 22 22 21 21 20 20 19 19 20 19 18 17 17 16 17 17 17 15 13 12 13 14 14 15 15 15 15 16 15 13 12 12 12 13 14 14 14 14 13 13 12 10 9 9 9 8 6 5 8 12 13 14 13 10 8 10 13 13 15 17 20 22
37 36 35 35 34 32 32 32 33 35 36 36 35 33 33 33 31 30 29 27 25 24 23 23 23 23 22 21 20 20 20 20 20 19 17 17 17 18 18 16 14 12 13 15 15 16 16 15 14 14 15 14 13 13 13 12 12 12 12 11 12 12 12 12 13 12 10 10 10 10 9 10 12 13 13 11 8 7 9 11 13 16 17 20 22
Wind_Direction
171 168 165 158 152 148 143 139 137 134 131 131 128 128 127 126 123 120 115 110 107 104 102 98 96 93 90 87 85 84 85 89 90 91 89 89 90 92 99 103 104 104 100 94 84 66 56 60 69 75 80 87 93 99 102 102 99 98 98 96 94 91 89 87 84 81 76 73 71 69 64 61 61 59 58 56 55 54 53 52 51 49 46 43 41
164 167 172 160 156 151 147 143 140 136 133 133 130 130 128 128 125 121 117 111 109 107 104 101 98 94 90 85 84 85 88 91 92 90 84 83 84 90 100 107 107 104 101 94 80 64 64 73 76 82 88 95 100 103 104 102 101 100 98 96 95 92 88 85 82 78 73 71 70 67 60 53 51 50 49 49 48 47 46 45 46 43 41 39 35
164 166 173 164 160 154 151 147 142 140 135 135 132 131 129 128 126 123 119 115 112 108 105 101 98 94 90 86 85 86 90 93 94 92 86 84 85 91 99 104 108 105 101 93 81 74 79 82 83 90 96 101 103 104 103 102 101 99 98 97 94 90 86 82 77 71 68 68 64 61 56 45 39 40 39 41 42 40 40 39 39 37 34 33 30
172 166 173 169 163 160 155 151 147 144 139 138 135 132 131 130 128 125 122 118 115 110 106 102 101 95 91 89 86 86 89 91 91 93 93 95 95 95 98 102 103 102 100 95 89 88 89 88 91 96 100 103 104 104 103 102 100 98 97 96 94 91 86 80 73 66 60 59 56 52 50 39 29 31 33 32 35 33 32 29 29 32 30 26 24
178 171 174 172 167 164 158 156 151 148 144 141 139 135 133 132 131 129 125 121 117 113 109 105 103 96 93 91 89 88 86 88 90 93 96 101 104 102 102 103 102 102 102 100 97 96 93 92 97 99 101 102 102 103 102 101 100 99 97 96 96 93 87 79 70 63 55 48 44 44 45 35 23 23 29 26 25 23 23 21 18 22 26 22 20
183 177 174 175 172 167 163 160 156 152 149 145 142 138 136 135 134 133 129 125 121 117 116 111 102 96 92 90 90 90 89 91 94 96 99 101 105 106 106 106 106 106 105 104 102 100 97 96 99 100 100 100 101 101 100 100 98 98 98 98 95 90 87 80 70 62 57 51 40 42 43 31 19 19 25 23 19 17 17 16 12 14 21 21 20
187 184 177 177 176 170 168 164 161 156 151 149 146 141 138 138 138 137 134 130 126 124 123 116 104 98 90 88 90 91 93 94 96 99 102 102 103 107 108 110 110 110 109 108 106 104 102 101 101 101 101 100 101 100 99 98 97 97 97 96 91 88 90 87 79 67 59 57 52 52 44 27 18 19 24 23 18 17 16 13 11 12 15 17 17
187 190 182 178 178 174 171 168 165 160 155 152 149 145 141 141 143 141 138 135 131 131 129 120 112 106 95 90 91 91 95 99 102 104 104 103 104 108 109 111 113 112 113 111 110 108 107 106 104 103 103 102 101 100 99 98 97 97 95 94 89 86 89 88 83 71 59 46 44 51 36 19 17 17 21 21 17 15 13 10 10 11 12 12 12
188 194 187 181 180 177 175 172 169 162 158 155 153 148 145 146 147 146 141 139 135 135 133 124 118 109 99 93 94 95 100 107 109 109 108 106 107 111 112 113 115 115 115 114 114 113 112 110 108 107 105 105 103 102 100 99 98 97 96 92 85 83 86 83 77 70 59 42 34 30 17 11 14 14 16 16 12 11 9 9 10 10 10 9 7
195 196 190 184 181 180 179 175 171 165 162 159 157 151 148 150 149 148 144 141 139 141 138 128 123 108 99 97 99 104 108 112 114 115 113 110 112 117 117 118 118 118 118 117 117 117 116 114 113 111 109 108 106 105 103 102 100 99 98 90 84 86 89 86 82 75 64 64 43 8 12 14 12 12 13 11 8 6 4 4 3 2 1 1 360
199 196 191 185 183 182 181 178 173 168 166 162 159 154 152 153 151 150 147 146 146 147 142 132 126 109 103 103 106 111 116 118 121 121 117 114 115 121 122 123 123 122 121 120 120 120 120 118 116 114 112 111 108 107 104 103 103 103 99 92 89 92 96 91 90 84 77 99 47 348 4 9 9 15 13 9 8 4 0 357 354 353 351 351 351
199 192 189 186 183 183 183 181 175 171 169 165 162 157 156 156 154 153 152 151 154 153 144 136 128 117 114 112 112 118 124 126 127 125 123 119 119 125 127 127 127 125 124 123 124 123 121 119 117 115 113 111 109 108 106 106 105 104 101 99 98 96 100 95 93 88 86 115 356 343 348 350 357 13 11 5 5 3 0 357 353 351 350 348 348
197 186 188 187 182 183 186 182 177 175 171 168 164 160 159 159 157 157 158 157 160 157 145 140 132 126 124 119 119 124 131 132 131 129 128 126 123 128 130 131 130 128 127 126 126 124 122 119 116 114 112 111 110 111 110 110 107 105 105 104 101 94 99 96 95 90 89 106 330 336 341 341 343 359 4 1 1 2 1 359 356 355 353 351 350
191 179 185 187 183 183 185 185 180 177 174 171 166 163 162 161 161 161 162 163 164 159 149 145 140 138 133 124 126 130 135 136 135 134 133 131 129 130 132 133 132 131 130 127 127 124 122 119 116 115 111 111 108 110 108 108 106 103 104 100 86 79 94 97 93 84 76 70 309 322 331 341 345 348 356 357 356 359 359 359 359 358 355 353 350
191 177 183 186 185 184 183 186 181 179 178 172 168 165 165 165 165 165 168 170 166 161 156 152 150 146 138 131 131 134 138 140 141 139 138 136 133 133 134 134 134 133 131 129 127 125 125 122 120 117 111 110 103 103 99 95 91 83 80 67 52 52 75 92 91 75 53 37 310 320 326 340 346 343 347 351 352 354 355 359 359 357 352 349 347
197 183 182 186 188 185 183 185 182 182 179 174 171 166 167 168 168 171 173 172 168 165 161 158 157 148 139 134 134 138 140 144 146 145 143 141 138 137 136 136 136 135 134 131 129 128 129 128 126 121 112 106 96 94 85 72 63 53 42 34 32 23 46 81 88 71 45 32 331 328 330 337 341 339 341 345 348 350 354 358 357 352 347 343 341
195 196 190 188 192 190 184 183 183 181 178 175 172 169 169 171 172 175 176 174 171 168 164 163 156 142 138 137 139 143 146 149 151 151 149 146 144 142 141 140 140 140 139 136 135 134 131 131 127 121 112 102 91 81 67 54 48 41 31 29 29 33 67 86 73 59 32 20 320 323 329 334 338 338 339 343 345 348 350 352 349 345 342 338 334
193 201 203 197 197 196 189 183 182 180 177 174 172 171 171 173 174 177 178 176 174 169 165 162 151 141 143 143 146 150 153 154 155 156 154 153 150 148 148 146 146 145 144 142 141 141 137 135 130 125 111 95 75 64 62 56 51 41 38 34 35 63 98 86 56 32 30 31 330 320 327 332 336 335 338 342 343 344 344 341 337 335 336 335 331
193 194 205 209 202 198 192 185 182 179 177 175 173 172 172 174 175 179 181 178 173 166 163 159 149 149 153 152 153 153 157 160 159 160 157 158 158 156 157 155 156 154 151 149 145 143 140 135 133 120 94 78 59 70 71 59 50 44 46 44 52 75 97 82 40 28 35 20 346 334 332 333 333 333 338 339 336 336 333 329 327 327 330 332 332
190 186 197 206 202 199 195 190 184 179 178 177 175 172 172 174 176 180 182 177 170 164 164 159 156 159 161 159 158 159 162 166 164 164 163 162 163 161 162 161 160 159 154 151 143 135 124 116 106 91 83 76 72 85 73 54 47 45 48 49 59 70 82 72 32 30 26 348 342 339 334 333 331 332 333 332 328 326 322 320 319 321 326 330 332
189 180 188 196 196 198 195 192 186 181 180 178 177 174 172 175 177 181 181 176 169 166 166 163 167 168 167 166 164 166 169 171 170 169 169 166 164 165 165 165 159 156 151 142 135 122 109 96 86 89 92 85 82 85 70 52 42 40 46 49 56 58 63 63 30 21 351 329 334 334 335 336 331 330 329 329 326 322 320 317 316 319 324 328 330
193 178 181 192 192 191 192 192 186 183 182 180 177 175 175 176 179 181 180 173 167 168 168 169 175 175 175 173 170 175 176 176 174 172 171 168 168 167 166 170 161 150 145 139 131 121 109 91 87 97 93 82 77 76 68 50 37 39 48 49 50 48 49 55 30 1 335 329 334 337 339 337 333 332 331 329 325 323 324 322 322 324 327 330 332
191 184 178 186 188 180 188 191 187 185 183 180 177 178 179 177 179 180 175 169 169 169 169 174 180 189 185 176 179 182 181 178 174 172 171 173 176 173 168 168 160 150 145 138 129 120 109 91 86 91 81 70 70 73 73 58 49 49 48 42 43 47 45 45 25 353 338 339 338 339 341 337 335 332 329 329 329 334 338 337 341 341 340 343 345
189 188 182 182 181 173 184 187 186 187 184 181 178 181 180 177 179 176 173 171 169 167 171 179 187 204 195 183 191 186 181 178 171 167 169 177 180 176 172 161 151 149 142 133 126 117 113 104 92 93 82 66 66 62 65 60 56 58 49 38 40 49 51 61 52 355 340 340 336 339 339 337 336 334 339 349 359 4 8 10 8 7 4 1 359
188 187 190 184 176 175 182 178 178 184 183 182 180 181 179 175 177 173 174 173 169 169 171 177 185 202 197 190 194 184 172 167 164 163 166 175 176 171 165 152 143 143 141 138 135 128 126 118 104 101 74 59 64 60 61 49 45 54 46 43 52 64 67 65 24 338 334 335 334 338 337 341 349 357 9 20 26 24 27 25 19 18 14 11 9
187 189 192 184 174 172 177 174 171 179 182 182 183 182 177 173 174 173 174 173 171 171 172 178 175 174 182 191 186 164 150 150 157 160 163 166 165 165 157 148 140 138 139 141 146 148 131 92 77 76 60 64 72 64 57 45 47 47 32 57 78 76 44 354 318 322 328 334 337 341 347 358 6 13 25 30 32 27 28 26 20 19 15 15 15
186 192 190 183 176 170 175 177 171 179 180 178 183 183 178 174 173 173 173 175 172 169 178 176 162 147 172 192 173 146 139 141 153 157 160 162 159 155 145 140 139 139 137 130 120 66 50 58 59 68 66 66 66 61 64 56 55 47 41 88 103 295 306 307 310 326 333 343 347 353 360 10 16 22 30 29 26 20 21 21 16 12 10 11 9
185 189 185 182 177 174 181 183 176 184 180 173 183 183 180 177 174 174 174 176 171 168 170 147 137 158 212 194 162 150 146 137 148 166 159 154 141 130 123 123 146 159 149 119 86 28 26 56 66 74 71 63 49 56 82 67 55 63 90 147 260 288 304 316 328 347 354 358 353 360 2 9 18 23 25 20 14 11 11 8 3 359 355 352 347
184 182 181 182 180 181 187 186 181 190 182 171 178 185 186 179 174 175 175 174 169 162 153 140 163 207 230 193 160 157 152 132 132 175 158 141 113 106 119 143 176 182 152 85 64 31 40 93 103 101 90 76 51 66 83 52 75 131 180 215 262 279 317 324 329 355 18 10 348 355 355 1 7 6 7 5 2 360 357 354 350 346 342 338 335
184 182 181 183 183 188 190 184 184 189 184 176 177 190 192 177 172 177 174 170 167 160 151 159 189 211 220 178 159 153 147 132 109 135 139 121 68 291 259 236 227 233 264 293 293 61 150 149 152 126 104 100 86 100 85 47 88 137 166 177 172 215 320 331 321 350 17 7 347 345 348 351 350 348 350 352 352 350 347 345 343 340 336 335 334
186 184 184 184 185 190 190 183 181 180 183 188 187 196 196 177 175 182 173 165 164 164 166 181 197 208 190 167 162 155 148 148 159 158 134 263 271 264 263 237 222 227 234 245 238 207 185 175 162 135 140 151 123 106 89 64 87 124 138 148 157 259 312 325 317 326 342 351 345 342 344 342 342 345 347 348 350 350 349 347 345 345 344 342 341
188 187 186 187 188 191 191 183 177 176 181 192 194 198 197 180 180 185 171 162 165 173 185 196 196 183 164 164 168 163 159 161 172 189 193 209 213 206 228 236 225 225 221 224 228 210 183 167 115 120 123 127 115 92 100 109 99 100 101 94 7 317 322 339 355 343 341 344 343 343 342 339 342 347 346 346 352 354 354 356 358 358 359 359 356
189 191 189 189 191 192 191 181 173 176 180 191 197 201 198 185 184 184 172 168 172 182 194 199 190 161 154 168 172 167 167 169 176 191 198 211 213 206 223 245 250 256 239 202 206 193 161 140 120 119 107 112 115 87 112 138 142 126 94 65 21 344 346 57 74 39 2 351 348 346 344 343 345 347 347 350 358 2 2 6 14 16 17 18 13
188 192 192 191 191 192 193 184 172 176 184 191 198 204 200 187 186 184 177 178 180 187 197 197 185 159 154 172 175 165 171 180 186 194 201 213 220 215 218 229 244 262 260 217 197 184 168 160 141 125 113 126 143 136 133 138 145 161 161 158 185 181 178 172 117 51 1 351 347 342 341 343 344 349 353 355 1 11 14 17 24 26 29 32 26
190 193 193 192 191 192 194 188 174 176 188 194 196 203 199 186 186 185 181 184 186 189 194 187 179 172 165 173 176 169 175 187 192 197 205 208 214 220 214 220 238 247 236 205 194 195 186 185 161 141 137 138 148 159 164 165 160 169 183 191 189 174 177 199 309 318 328 328 327 332 341 348 352 3 10 8 10 17 22 26 31 32 35 40 36
192 194 192 190 191 192 192 188 179 178 187 192 195 202 197 186 184 185 184 189 190 186 185 181 180 180 177 179 181 179 183 193 197 198 207 208 212 219 212 215 227 233 218 189 191 206 204 201 172 160 164 158 153 149 158 195 204 199 196 195 187 179 191 235 294 314 325 319 323 357 19 18 22 31 38 39 36 33 34 35 36 34 35 41 42
194 194 192 189 190 190 187 187 184 182 186 189 192 197 192 183 183 185 187 190 189 183 183 187 187 180 178 184 186 189 193 197 201 203 209 213 216 223 216 211 213 218 212 196 198 207 213 220 186 172 176 174 165 156 164 190 198 197 194 193 196 205 258 303 313 332 346 335 356 30 40 44 49 49 47 49 48 47 47 47 45 41 37 38 39
193 196 195 192 191 191 187 187 186 185 187 188 189 193 184 178 182 188 189 188 183 178 184 188 183 175 179 188 190 194 200 200 203 208 212 212 214 225 223 211 209 209 205 200 201 203 211 228 199 178 181 183 170 162 171 183 185 187 186 192 214 248 303 322 335 19 32 35 40 41 47 56 60 58 55 54 52 51 51 52 51 46 42 40 39
193 197 198 194 192 193 188 184 184 184 188 191 191 189 180 177 184 188 187 185 174 172 185 183 176 182 187 190 194 199 205 204 204 208 211 207 212 228 226 212 209 204 202 200 201 204 210 222 212 186 188 192 179 171 175 181 190 198 197 198 223 283 335 5 41 57 51 49 50 51 55 59 61 60 58 57 57 55 52 53 50 46 45 42 41
195 199 199 196 192 191 187 183 183 184 188 192 192 187 180 179 184 187 185 180 170 173 188 186 183 193 195 191 196 203 207 206 206 211 213 209 213 222 215 208 207 203 203 205 206 207 212 215 210 196 194 192 184 180 183 189 197 199 196 205 210 175 58 57 67 62 56 54 56 61 62 62 62 59 58 60 61 59 55 54 53 48 45 42 40
197 199 197 195 193 189 185 184 185 186 191 193 192 186 180 181 186 188 182 176 174 180 190 192 193 198 198 195 199 203 205 206 209 210 212 213 215 218 216 211 208 206 207 210 213 211 213 213 199 197 198 190 182 183 190 198 203 198 189 195 184 143 92 68 68 63 59 57 60 64 65 68 68 66 65 64 65 63 59 57 54 49 44 41 39
196 196 195 196 192 186 187 190 188 190 194 196 194 185 180 183 186 184 178 175 180 188 195 198 200 200 198 198 200 203 205 207 209 204 205 213 215 215 216 212 206 205 205 210 217 215 218 215 200 197 196 193 188 187 197 204 208 211 207 200 176 147 116 83 69 63 61 59 62 66 69 73 72 73 71 68 68 64 59 57 54 49 43 40 37
194 193 195 196 189 187 193 194 191 193 194 196 193 184 181 185 186 183 180 181 186 194 201 203 201 199 197 198 202 206 206 206 206 203 208 214 215 213 209 206 204 203 204 211 220 222 222 213 203 200 194 196 196 192 201 208 211 213 214 219 196 161 138 116 75 64 66 68 73 74 74 72 69 72 73 70 66 60 56 54 51 48 42 39 36
192 192 194 193 189 193 198 193 192 194 192 192 188 181 181 186 188 187 186 190 195 199 203 204 201 199 198 199 204 207 205 205 205 204 206 208 212 214 209 205 203 205 208 214 222 225 217 204 204 209 202 199 199 195 199 204 213 214 208 214 203 181 167 156 113 83 80 82 85 81 76 71 64 64 66 66 61 54 50 47 48 47 40 36 33
192 192 193 192 193 199 201 195 192 191 189 187 182 181 183 185 189 190 190 196 200 200 200 199 200 200 200 200 203 206 206 207 205 204 204 203 207 208 206 206 207 212 214 217 224 221 209 200 203 213 208 198 198 201 199 199 210 219 211 199 188 192 194 178 144 107 102 96 88 80 70 60 52 48 50 58 56 48 42 40 43 40 34 31 28
191 191 193 193 196 202 204 199 193 189 187 182 179 185 188 187 192 193 194 197 198 200 200 199 200 201 202 204 207 209 208 206 203 204 204 202 203 202 205 210 212 218 220 224 229 217 205 201 204 214 212 203 203 205 202 199 203 211 213 217 224 230 204 181 166 137 126 112 93 78 60 46 42 41 40 47 50 45 33 30 33 27 26 30 26
188 190 194 195 199 204 203 199 193 189 185 180 181 190 192 193 198 199 199 199 198 199 201 202 204 203 205 208 209 208 205 201 199 202 206 205 207 208 212 216 218 222 226 231 232 215 204 203 207 215 219 218 214 207 203 202 204 206 209 222 235 236 198 182 178 160 148 136 119 85 63 52 45 41 39 40 47 47 29 21 24 18 22 30 26
189 190 193 197 200 203 203 197 192 190 186 182 186 195 198 198 200 199 200 201 200 201 201 203 205 207 209 208 205 202 198 198 199 200 203 206 212 216 217 220 222 228 232 234 227 212 204 205 210 216 223 229 224 209 202 201 204 205 206 215 224 211 190 188 181 163 158 149 137 104 79 75 58 48 45 40 45 51 30 16 16 13 25 35 33
191 192 194 199 200 201 202 195 191 191 188 186 191 198 202 202 200 197 198 201 203 204 204 202 203 207 209 206 201 198 195 197 202 201 201 206 215 220 220 221 224 233 239 231 216 206 204 206 210 216 223 230 227 212 205 202 202 203 204 207 207 198 190 187 184 176 162 144 128 112 103 95 74 59 53 48 50 55 27 8 11 20 34 42 39
193 194 198 202 199 201 203 196 193 192 189 190 195 199 204 205 202 199 199 201 203 204 203 202 203 205 205 202 199 197 195 198 204 205 205 210 216 221 225 226 229 238 233 215 205 203 205 208 211 215 220 225 224 212 205 203 201 202 203 201 197 196 192 183 179 177 163 138 114 108 124 106 87 76 69 65 63 52 12 357 16 34 42 45 43
192 196 200 201 199 203 203 196 193 192 190 194 196 198 203 206 205 203 202 204 204 204 204 204 205 205 204 202 198 197 196 200 207 210 209 213 217 223 228 231 237 238 218 205 204 204 206 210 213 213 213 214 213 208 203 203 202 201 200 198 197 198 196 191 183 180 175 151 124 115 122 111 94 91 90 86 74 43 6 354 16 35 42 47 43